| time (UTC) | temp F | wind direction | speed MPH | gust MPH | rain 1hr in | rain 24hr in | rain mn in | humidity % | barometer mb |
| 20260504171518 | 79 | 165 | 3.0 | 10.0 | 0.00 | 0.00 | 0.00 | 60 | 1014.5 |
| 20260504170518 | 78 | 176 | 4.0 | 9.0 | 0.00 | 0.00 | 0.00 | 60 | 1014.5 |
| 20260504150517 | 74 | 159 | 3.0 | 7.0 | 0.00 | 0.00 | 0.00 | 67 | 1015.2 |
| 20260504140518 | 72 | 96 | 2.0 | 5.0 | 0.00 | 0.00 | 0.00 | 67 | 1015.4 |
| 20260504130518 | 64 | 154 | 1.0 | 3.0 | 0.00 | 0.00 | 0.00 | 78 | 1015.2 |
| 20260504110517 | 57 | 211 | 1.0 | 3.0 | 0.00 | 0.00 | 0.00 | 88 | 1014.8 |
| 20260504100518 | 58 | 281 | 1.0 | 2.0 | 0.00 | 0.00 | 0.00 | 86 | 1015.1 |
| 20260504081519 | 59 | 220 | 1.0 | 1.0 | 0.00 | 0.00 | 0.00 | 82 | 1015.7 |
| 20260504080519 | 59 | 212 | 0.0 | 1.0 | 0.00 | 0.00 | 0.00 | 82 | 1015.8 |
| 20260504050522 | 63 | 202 | 1.0 | 2.0 | 0.00 | 0.00 | 0.00 | 72 | 1017.8 |
| 20260504045602 | 63 | 200 | 2.0 | 2.0 | 0.00 | 0.00 | 0.00 | 71 | 1017.7 |
| 20260504044522 | 64 | 193 | 1.0 | 2.0 | 0.00 | 0.00 | 0.00 | 70 | 1017.7 |
| 20260504043522 | 64 | 191 | 1.0 | 2.0 | 0.00 | 0.00 | 0.00 | 69 | 1017.8 |
| 20260504042522 | 64 | 194 | 2.0 | 2.0 | 0.00 | 0.00 | 0.00 | 69 | 1017.9 |
| 20260504041522 | 65 | 192 | 1.0 | 2.0 | 0.00 | 0.00 | 0.00 | 68 | 1018.0 |
| 20260504040523 | 65 | 196 | 2.0 | 2.0 | 0.00 | 0.00 | 0.00 | 67 | 1017.9 |
| 20260504035522 | 66 | 202 | 2.0 | 2.0 | 0.00 | 0.00 | 0.00 | 66 | 1017.8 |
| 20260504034543 | 66 | 180 | 2.0 | 3.0 | 0.00 | 0.00 | 0.00 | 65 | 1017.8 |
| 20260504033523 | 67 | 198 | 2.0 | 3.0 | 0.00 | 0.00 | 0.00 | 64 | 1017.9 |
| 20260504032523 | 67 | 200 | 3.0 | 3.0 | 0.00 | 0.00 | 0.00 | 63 | 1017.9 |
| 20260504031523 | 68 | 202 | 3.0 | 4.0 | 0.00 | 0.00 | 0.00 | 62 | 1017.7 |
| 20260504030523 | 68 | 204 | 2.0 | 4.0 | 0.00 | 0.00 | 0.00 | 61 | 1017.7 |
| 20260504025523 | 68 | 201 | 2.0 | 4.0 | 0.00 | 0.00 | 0.00 | 60 | 1017.6 |
| 20260504024543 | 69 | 191 | 2.0 | 3.0 | 0.00 | 0.00 | 0.00 | 59 | 1017.5 |
| 20260504023524 | 69 | 181 | 2.0 | 3.0 | 0.00 | 0.00 | 0.00 | 58 | 1017.5 |
| 20260504022524 | 69 | 194 | 2.0 | 3.0 | 0.00 | 0.00 | 0.00 | 58 | 1017.5 |
| 20260504021524 | 70 | 200 | 2.0 | 4.0 | 0.00 | 0.00 | 0.00 | 57 | 1017.4 |
| 20260504020524 | 70 | 158 | 2.0 | 3.0 | 0.00 | 0.00 | 0.00 | 56 | 1017.2 |
| 20260504015524 | 71 | 140 | 2.0 | 3.0 | 0.00 | 0.00 | 0.00 | 55 | 1017.2 |
| 20260504014519 | 71 | 184 | 2.0 | 4.0 | 0.00 | 0.00 | 0.00 | 54 | 1017.2 |
| 20260504013539 | 72 | 180 | 2.0 | 5.0 | 0.00 | 0.00 | 0.00 | 53 | 1017.1 |
| 20260504012519 | 72 | 181 | 2.0 | 5.0 | 0.00 | 0.00 | 0.00 | 53 | 1017.1 |
| 20260504011519 | 73 | 188 | 2.0 | 4.0 | 0.00 | 0.00 | 0.00 | 52 | 1017.1 |
| 20260504010516 | 73 | 186 | 1.0 | 6.0 | 0.00 | 0.00 | 0.00 | 51 | 1017.0 |
| 20260504005516 | 74 | 182 | 2.0 | 5.0 | 0.00 | 0.00 | 0.00 | 51 | 1017.0 |
| 20260504004516 | 75 | 177 | 2.0 | 4.0 | 0.00 | 0.00 | 0.00 | 50 | 1017.0 |
| 20260504003516 | 75 | 167 | 2.0 | 5.0 | 0.00 | 0.00 | 0.00 | 49 | 1017.1 |
| 20260504002520 | 76 | 184 | 2.0 | 5.0 | 0.00 | 0.00 | 0.00 | 49 | 1016.9 |
| 20260504001520 | 76 | 161 | 2.0 | 6.0 | 0.00 | 0.00 | 0.00 | 48 | 1017.0 |
| 20260504000520 | 78 | 154 | 3.0 | 5.0 | 0.00 | 0.00 | 0.00 | 47 | 1017.0 |
| 20260503235517 | 79 | 170 | 2.0 | 5.0 | 0.00 | 0.00 | 0.00 | 44 | 1017.0 |
| 20260503234557 | 80 | 178 | 2.0 | 5.0 | 0.00 | 0.00 | 0.00 | 40 | 1017.0 |
| 20260503233517 | 80 | 137 | 2.0 | 6.0 | 0.00 | 0.00 | 0.00 | 40 | 1017.0 |
| 20260503232558 | 80 | 116 | 2.0 | 5.0 | 0.00 | 0.00 | 0.00 | 41 | 1017.1 |
| 20260503231517 | 81 | 136 | 2.0 | 5.0 | 0.00 | 0.00 | 0.00 | 39 | 1017.2 |
| 20260503230518 | 80 | 109 | 2.0 | 5.0 | 0.00 | 0.00 | 0.00 | 38 | 1017.2 |
| 20260503225558 | 81 | 75 | 3.0 | 6.0 | 0.00 | 0.00 | 0.00 | 38 | 1017.2 |
| 20260503224538 | 81 | 165 | 3.0 | 7.0 | 0.00 | 0.00 | 0.00 | 39 | 1017.4 |
| 20260503223518 | 81 | 158 | 3.0 | 6.0 | 0.00 | 0.00 | 0.00 | 39 | 1017.5 |
| 20260503222518 | 81 | 178 | 2.0 | 7.0 | 0.00 | 0.00 | 0.00 | 39 | 1017.5 |
| 20260503221518 | 82 | 91 | 3.0 | 8.0 | 0.00 | 0.00 | 0.00 | 37 | 1017.8 |
| 20260503220519 | 83 | 166 | 2.0 | 6.0 | 0.00 | 0.00 | 0.00 | 37 | 1017.9 |
| 20260503215519 | 81 | 122 | 2.0 | 5.0 | 0.00 | 0.00 | 0.00 | 38 | 1017.8 |
| 20260503214519 | 80 | 59 | 4.0 | 8.0 | 0.00 | 0.00 | 0.00 | 39 | 1017.8 |
| 20260503213539 | 82 | 111 | 3.0 | 6.0 | 0.00 | 0.00 | 0.00 | 38 | 1018.0 |
| 20260503212519 | 82 | 105 | 3.0 | 8.0 | 0.00 | 0.00 | 0.00 | 38 | 1018.3 |
| 20260503211519 | 81 | 100 | 2.0 | 5.0 | 0.00 | 0.00 | 0.00 | 38 | 1018.4 |
| 20260503210516 | 81 | 75 | 4.0 | 10.0 | 0.00 | 0.00 | 0.00 | 38 | 1018.5 |
| 20260503205516 | 80 | 46 | 2.0 | 6.0 | 0.00 | 0.00 | 0.00 | 39 | 1018.6 |
| 20260503204537 | 82 | 81 | 4.0 | 8.0 | 0.00 | 0.00 | 0.00 | 39 | 1018.7 |
| 20260503203520 | 82 | 165 | 4.0 | 8.0 | 0.00 | 0.00 | 0.00 | 39 | 1018.9 |
| 20260503202519 | 82 | 157 | 3.0 | 6.0 | 0.00 | 0.00 | 0.00 | 39 | 1019.0 |
| 20260503201517 | 81 | 78 | 2.0 | 6.0 | 0.00 | 0.00 | 0.00 | 40 | 1019.2 |
| 20260503200517 | 81 | 73 | 4.0 | 16.0 | 0.00 | 0.00 | 0.00 | 41 | 1019.4 |
| 20260503195557 | 80 | 58 | 3.0 | 9.0 | 0.00 | 0.00 | 0.00 | 41 | 1019.6 |
| 20260503194520 | 81 | 69 | 3.0 | 10.0 | 0.00 | 0.00 | 0.00 | 40 | 1019.7 |
| 20260503193520 | 79 | 175 | 2.0 | 5.0 | 0.00 | 0.00 | 0.00 | 41 | 1019.8 |
| 20260503192518 | 80 | 108 | 4.0 | 7.0 | 0.00 | 0.00 | 0.00 | 41 | 1020.0 |
| 20260503191538 | 80 | 72 | 3.0 | 7.0 | 0.00 | 0.00 | 0.00 | 41 | 1020.2 |
| 20260503190518 | 80 | 185 | 2.0 | 6.0 | 0.00 | 0.00 | 0.00 | 41 | 1020.3 |
| 20260503185518 | 80 | 69 | 4.0 | 11.0 | 0.00 | 0.00 | 0.00 | 41 | 1020.4 |
| 20260503184538 | 80 | 48 | 3.0 | 9.0 | 0.00 | 0.00 | 0.00 | 41 | 1020.5 |
| 20260503183518 | 80 | 93 | 4.0 | 10.0 | 0.00 | 0.00 | 0.00 | 41 | 1020.7 |
| 20260503182518 | 80 | 85 | 3.0 | 9.0 | 0.00 | 0.00 | 0.00 | 41 | 1020.8 |
| 20260503181519 | 80 | 69 | 3.0 | 8.0 | 0.00 | 0.00 | 0.00 | 43 | 1020.9 |
| 20260503180519 | 79 | 75 | 3.0 | 8.0 | 0.00 | 0.00 | 0.00 | 41 | 1021.1 |
| 20260503175518 | 79 | 68 | 3.0 | 9.0 | 0.00 | 0.00 | 0.00 | 41 | 1021.3 |
| 20260503174519 | 78 | 45 | 2.0 | 6.0 | 0.00 | 0.00 | 0.00 | 42 | 1021.5 |
| 20260503173519 | 79 | 63 | 3.0 | 8.0 | 0.00 | 0.00 | 0.00 | 43 | 1021.7 |
| 20260503172519 | 80 | 95 | 2.0 | 6.0 | 0.00 | 0.00 | 0.00 | 42 | 1021.8 |